| time (UTC) | temp F | wind direction | speed MPH | gust MPH | rain 1hr in | rain 24hr in | rain mn in | humidity % | barometer mb |
| 20260904145513 | 54 | 49 | 12.0 | 23.0 | 0.00 | 0.00 | 0.00 | 81 | 1011.9 |
| 20260904145013 | 54 | 15 | 13.0 | 23.0 | 0.00 | 0.00 | 0.00 | 81 | 1012.1 |
| 20260904144516 | 54 | 8 | 10.0 | 23.0 | 0.00 | 0.00 | 0.00 | 82 | 1012.2 |
| 20260904144015 | 54 | 5 | 9.0 | 19.0 | 0.00 | 0.00 | 0.00 | 82 | 1012.2 |
| 20260904143513 | 53 | 333 | 8.0 | 24.0 | 0.00 | 0.00 | 0.00 | 82 | 1012.0 |
| 20260904143034 | 53 | 18 | 13.0 | 24.0 | 0.00 | 0.00 | 0.00 | 81 | 1012.1 |
| 20260904142519 | 53 | 4 | 14.0 | 24.0 | 0.00 | 0.00 | 0.00 | 82 | 1012.0 |
| 20260904142006 | 53 | 35 | 9.0 | 27.0 | 0.00 | 0.00 | 0.00 | 82 | 1011.9 |
| 20260904141511 | 53 | 2 | 12.0 | 27.0 | 0.00 | 0.00 | 0.00 | 82 | 1012.0 |
| 20260904141004 | 53 | 359 | 9.0 | 26.0 | 0.00 | 0.00 | 0.00 | 82 | 1012.0 |
| 20260904140510 | 53 | 20 | 11.0 | 26.0 | 0.00 | 0.00 | 0.00 | 82 | 1012.1 |
| 20260904140011 | 53 | 9 | 13.0 | 23.0 | 0.00 | 0.00 | 0.00 | 82 | 1012.3 |
| 20260904135503 | 53 | 24 | 10.0 | 29.0 | 0.00 | 0.00 | 0.00 | 81 | 1012.3 |
| 20260904135008 | 54 | 10 | 14.0 | 31.0 | 0.00 | 0.00 | 0.00 | 80 | 1012.4 |
| 20260904134508 | 54 | 15 | 15.0 | 31.0 | 0.00 | 0.00 | 0.00 | 79 | 1012.6 |
| 20260904134002 | 54 | 20 | 13.0 | 37.0 | 0.00 | 0.00 | 0.00 | 79 | 1012.7 |
| 20260904133504 | 55 | 10 | 18.0 | 38.0 | 0.00 | 0.00 | 0.00 | 79 | 1012.8 |
| 20260904133007 | 55 | 4 | 19.0 | 38.0 | 0.00 | 0.00 | 0.00 | 79 | 1012.8 |
| 20260904132510 | 55 | 10 | 18.0 | 30.0 | 0.00 | 0.00 | 0.00 | 79 | 1013.0 |
| 20260904132009 | 55 | 14 | 13.0 | 30.0 | 0.00 | 0.00 | 0.00 | 78 | 1013.0 |
| 20260904131504 | 55 | 58 | 15.0 | 36.0 | 0.00 | 0.00 | 0.00 | 77 | 1013.2 |
| 20260904131004 | 55 | 339 | 17.0 | 36.0 | 0.00 | 0.00 | 0.00 | 77 | 1013.3 |
| 20260904130505 | 56 | 345 | 22.0 | 32.0 | 0.00 | 0.00 | 0.00 | 77 | 1013.4 |
| 20260904130018 | 55 | 9 | 19.0 | 32.0 | 0.00 | 0.00 | 0.00 | 77 | 1013.2 |
| 20260904125509 | 55 | 33 | 16.0 | 33.0 | 0.00 | 0.00 | 0.00 | 76 | 1013.3 |
| 20260904125005 | 55 | 344 | 20.0 | 35.0 | 0.00 | 0.00 | 0.00 | 76 | 1013.1 |
| 20260904124518 | 55 | 1 | 14.0 | 35.0 | 0.00 | 0.00 | 0.00 | 76 | 1013.3 |
| 20260904124004 | 56 | 349 | 18.0 | 32.0 | 0.00 | 0.00 | 0.00 | 75 | 1013.3 |
| 20260904123514 | 56 | 351 | 16.0 | 36.0 | 0.00 | 0.00 | 0.00 | 75 | 1013.3 |
| 20260904123012 | 56 | 341 | 18.0 | 38.0 | 0.00 | 0.00 | 0.00 | 75 | 1013.3 |
| 20260904122504 | 56 | 329 | 18.0 | 41.0 | 0.00 | 0.00 | 0.00 | 75 | 1013.2 |
| 20260904122005 | 56 | 8 | 17.0 | 41.0 | 0.00 | 0.00 | 0.00 | 75 | 1013.0 |
| 20260904121506 | 56 | 128 | 15.0 | 31.0 | 0.00 | 0.00 | 0.00 | 75 | 1013.1 |
| 20260904121004 | 56 | 18 | 17.0 | 31.0 | 0.00 | 0.00 | 0.00 | 75 | 1013.2 |
| 20260904120515 | 56 | 4 | 20.0 | 32.0 | 0.00 | 0.00 | 0.00 | 74 | 1013.6 |
| 20260904120011 | 56 | 24 | 18.0 | 32.0 | 0.00 | 0.00 | 0.00 | 74 | 1013.1 |
| 20260904115508 | 56 | 354 | 14.0 | 24.0 | 0.00 | 0.00 | 0.00 | 74 | 1013.4 |
| 20260904115010 | 56 | 21 | 13.0 | 24.0 | 0.00 | 0.00 | 0.00 | 74 | 1013.2 |
| 20260904114509 | 56 | 349 | 14.0 | 27.0 | 0.00 | 0.00 | 0.00 | 74 | 1013.2 |
| 20260904114011 | 56 | 330 | 14.0 | 29.0 | 0.00 | 0.00 | 0.00 | 74 | 1013.0 |
| 20260904113508 | 56 | 17 | 16.0 | 29.0 | 0.00 | 0.00 | 0.00 | 74 | 1013.3 |
| 20260904113007 | 56 | 8 | 15.0 | 29.0 | 0.00 | 0.00 | 0.00 | 74 | 1013.5 |
| 20260904112513 | 56 | 20 | 14.0 | 27.0 | 0.00 | 0.00 | 0.00 | 74 | 1013.4 |
| 20260904112009 | 55 | 37 | 15.0 | 27.0 | 0.00 | 0.00 | 0.00 | 73 | 1013.6 |
| 20260904111530 | 55 | 10 | 16.0 | 29.0 | 0.00 | 0.00 | 0.00 | 74 | 1013.6 |
| 20260904111011 | 55 | 11 | 16.0 | 29.0 | 0.00 | 0.00 | 0.00 | 73 | 1013.8 |
| 20260904110506 | 55 | 27 | 18.0 | 26.0 | 0.00 | 0.00 | 0.00 | 74 | 1013.9 |
| 20260904110024 | 55 | 29 | 9.0 | 19.0 | 0.00 | 0.00 | 0.00 | 73 | 1014.0 |
| 20260904105506 | 54 | 3 | 12.0 | 23.0 | 0.00 | 0.00 | 0.00 | 73 | 1014.1 |
| 20260904105008 | 54 | 23 | 11.0 | 22.0 | 0.00 | 0.00 | 0.00 | 73 | 1014.2 |
| 20260904104510 | 54 | 14 | 9.0 | 19.0 | 0.00 | 0.00 | 0.00 | 73 | 1014.1 |
| 20260904104008 | 54 | 347 | 7.0 | 20.0 | 0.00 | 0.00 | 0.00 | 73 | 1014.2 |
| 20260904103513 | 54 | 346 | 8.0 | 20.0 | 0.00 | 0.00 | 0.00 | 73 | 1014.4 |
| 20260904103021 | 54 | 337 | 9.0 | 18.0 | 0.00 | 0.00 | 0.00 | 73 | 1014.5 |
| 20260904102507 | 54 | 339 | 11.0 | 20.0 | 0.00 | 0.00 | 0.00 | 72 | 1014.5 |
| 20260904102013 | 54 | 12 | 13.0 | 20.0 | 0.00 | 0.00 | 0.00 | 72 | 1014.5 |
| 20260904101514 | 54 | 346 | 12.0 | 20.0 | 0.00 | 0.00 | 0.00 | 72 | 1014.6 |
| 20260904101018 | 54 | 360 | 10.0 | 19.0 | 0.00 | 0.00 | 0.00 | 73 | 1014.8 |
| 20260904100517 | 54 | 335 | 11.0 | 19.0 | 0.00 | 0.00 | 0.00 | 73 | 1015.0 |
| 20260904100012 | 54 | 348 | 10.0 | 18.0 | 0.00 | 0.00 | 0.00 | 73 | 1014.9 |
| 20260904095518 | 54 | 8 | 9.0 | 20.0 | 0.00 | 0.00 | 0.00 | 72 | 1015.0 |
| 20260904095012 | 54 | 30 | 9.0 | 20.0 | 0.00 | 0.00 | 0.00 | 72 | 1015.0 |
| 20260904094513 | 54 | 335 | 11.0 | 28.0 | 0.00 | 0.00 | 0.00 | 72 | 1015.0 |
| 20260904094013 | 54 | 360 | 14.0 | 27.0 | 0.00 | 0.00 | 0.00 | 72 | 1014.9 |
| 20260904093510 | 54 | 3 | 14.0 | 27.0 | 0.00 | 0.00 | 0.00 | 72 | 1015.0 |
| 20260904093018 | 54 | 339 | 15.0 | 27.0 | 0.00 | 0.00 | 0.00 | 72 | 1014.9 |
| 20260904092519 | 54 | 349 | 14.0 | 22.0 | 0.00 | 0.00 | 0.00 | 72 | 1014.8 |
| 20260904092010 | 54 | 14 | 10.0 | 23.0 | 0.00 | 0.00 | 0.00 | 73 | 1014.7 |
| 20260904091523 | 53 | 10 | 14.0 | 26.0 | 0.00 | 0.00 | 0.00 | 72 | 1014.7 |
| 20260904091011 | 53 | 342 | 13.0 | 26.0 | 0.00 | 0.00 | 0.00 | 73 | 1014.6 |
| 20260904090514 | 53 | 350 | 13.0 | 24.0 | 0.00 | 0.00 | 0.00 | 73 | 1014.6 |
| 20260904090042 | 53 | 26 | 12.0 | 31.0 | 0.00 | 0.00 | 0.00 | 73 | 1014.5 |
| 20260904085507 | 53 | 21 | 12.0 | 31.0 | 0.00 | 0.00 | 0.00 | 72 | 1014.4 |
| 20260904085022 | 53 | 14 | 16.0 | 31.0 | 0.00 | 0.00 | 0.00 | 73 | 1014.3 |
| 20260904084524 | 52 | 350 | 12.0 | 24.0 | 0.00 | 0.00 | 0.00 | 73 | 1014.5 |
| 20260904084007 | 52 | 7 | 12.0 | 21.0 | 0.00 | 0.00 | 0.00 | 73 | 1014.4 |
| 20260904083517 | 52 | 29 | 7.0 | 20.0 | 0.00 | 0.00 | 0.00 | 73 | 1014.3 |
| 20260904083011 | 52 | 10 | 9.0 | 17.0 | 0.00 | 0.00 | 0.00 | 74 | 1014.4 |
| 20260904082519 | 52 | 33 | 7.0 | 23.0 | 0.00 | 0.00 | 0.00 | 73 | 1014.6 |
| 20260904082011 | 52 | 10 | 9.0 | 23.0 | 0.00 | 0.00 | 0.00 | 73 | 1014.6 |
| 20260904081529 | 52 | 6 | 10.0 | 26.0 | 0.00 | 0.00 | 0.00 | 72 | 1014.7 |
| 20260904081013 | 52 | 8 | 12.0 | 29.0 | 0.00 | 0.00 | 0.00 | 72 | 1014.9 |
| 20260904080516 | 52 | 22 | 14.0 | 29.0 | 0.00 | 0.00 | 0.00 | 72 | 1014.9 |
| 20260904080012 | 52 | 355 | 14.0 | 22.0 | 0.00 | 0.00 | 0.00 | 72 | 1015.0 |
| 20260904075516 | 52 | 10 | 10.0 | 21.0 | 0.00 | 0.00 | 0.00 | 72 | 1015.0 |
| 20260904075013 | 52 | 351 | 10.0 | 23.0 | 0.00 | 0.00 | 0.00 | 71 | 1015.0 |
| 20260904074532 | 52 | 22 | 11.0 | 32.0 | 0.00 | 0.00 | 0.00 | 71 | 1015.2 |
| 20260904074015 | 52 | 8 | 13.0 | 32.0 | 0.00 | 0.00 | 0.00 | 71 | 1015.3 |
| 20260904073514 | 52 | 12 | 12.0 | 27.0 | 0.00 | 0.00 | 0.00 | 71 | 1015.3 |
| 20260904073031 | 52 | 28 | 15.0 | 30.0 | 0.00 | 0.00 | 0.00 | 71 | 1015.1 |
| 20260904072512 | 52 | 31 | 17.0 | 34.0 | 0.00 | 0.00 | 0.00 | 71 | 1015.2 |
| 20260904072027 | 52 | 322 | 17.0 | 34.0 | 0.00 | 0.00 | 0.00 | 71 | 1015.2 |
| 20260904071530 | 52 | 15 | 13.0 | 28.0 | 0.00 | 0.00 | 0.00 | 71 | 1015.1 |
| 20260904071012 | 52 | 21 | 13.0 | 23.0 | 0.00 | 0.00 | 0.00 | 71 | 1015.2 |
| 20260904070517 | 52 | 345 | 9.0 | 23.0 | 0.00 | 0.00 | 0.00 | 71 | 1015.3 |
| 20260904070032 | 52 | 8 | 8.0 | 28.0 | 0.00 | 0.00 | 0.00 | 71 | 1015.3 |
| 20260904065509 | 53 | 345 | 13.0 | 28.0 | 0.00 | 0.00 | 0.00 | 70 | 1015.3 |
| 20260904065019 | 53 | 62 | 13.0 | 23.0 | 0.00 | 0.00 | 0.00 | 70 | 1015.6 |
| 20260904064525 | 53 | 345 | 12.0 | 21.0 | 0.00 | 0.00 | 0.00 | 70 | 1015.7 |
| 20260904064021 | 53 | 52 | 10.0 | 22.0 | 0.00 | 0.00 | 0.00 | 70 | 1015.8 |
| 20260904063520 | 53 | 12 | 9.0 | 22.0 | 0.00 | 0.00 | 0.00 | 70 | 1016.0 |
| 20260904063032 | 53 | 359 | 10.0 | 26.0 | 0.00 | 0.00 | 0.00 | 69 | 1015.9 |
| 20260904062518 | 53 | 336 | 7.0 | 26.0 | 0.00 | 0.00 | 0.00 | 70 | 1016.0 |
| 20260904062015 | 53 | 18 | 5.0 | 19.0 | 0.00 | 0.00 | 0.00 | 70 | 1016.3 |
| 20260904061525 | 53 | 16 | 9.0 | 19.0 | 0.00 | 0.00 | 0.00 | 69 | 1016.5 |
| 20260904061018 | 54 | 8 | 8.0 | 19.0 | 0.00 | 0.00 | 0.00 | 68 | 1016.5 |
| 20260904060516 | 54 | 38 | 7.0 | 19.0 | 0.00 | 0.00 | 0.00 | 69 | 1016.5 |
| 20260904060035 | 54 | 353 | 9.0 | 18.0 | 0.00 | 0.00 | 0.00 | 69 | 1016.7 |
| 20260904055517 | 54 | 13 | 9.0 | 15.0 | 0.00 | 0.00 | 0.00 | 69 | 1016.9 |
| 20260904055015 | 53 | 346 | 7.0 | 24.0 | 0.00 | 0.00 | 0.00 | 69 | 1017.0 |
| 20260904054544 | 53 | 9 | 8.0 | 24.0 | 0.00 | 0.00 | 0.00 | 68 | 1017.0 |
| 20260904054015 | 54 | 333 | 9.0 | 18.0 | 0.00 | 0.00 | 0.00 | 67 | 1017.1 |
| 20260904053515 | 54 | 5 | 11.0 | 19.0 | 0.00 | 0.00 | 0.00 | 67 | 1017.1 |
| 20260904053043 | 54 | 358 | 9.0 | 19.0 | 0.00 | 0.00 | 0.00 | 67 | 1017.1 |
| 20260904052514 | 54 | 354 | 12.0 | 20.0 | 0.00 | 0.00 | 0.00 | 66 | 1017.2 |
| 20260904052007 | 54 | 5 | 12.0 | 23.0 | 0.00 | 0.00 | 0.00 | 67 | 1017.2 |
| 20260904051510 | 53 | 339 | 14.0 | 23.0 | 0.00 | 0.00 | 0.00 | 67 | 1017.3 |
| 20260904051003 | 53 | 341 | 12.0 | 23.0 | 0.00 | 0.00 | 0.00 | 67 | 1017.3 |
| 20260904050508 | 54 | 351 | 12.0 | 23.0 | 0.00 | 0.00 | 0.00 | 67 | 1017.5 |
| 20260904050004 | 54 | 8 | 15.0 | 23.0 | 0.00 | 0.00 | 0.00 | 66 | 1017.4 |
| 20260904045501 | 54 | 334 | 10.0 | 20.0 | 0.00 | 0.00 | 0.00 | 66 | 1017.4 |
| 20260904045007 | 54 | 343 | 13.0 | 23.0 | 0.00 | 0.00 | 0.00 | 67 | 1017.3 |
| 20260904044503 | 54 | 31 | 9.0 | 23.0 | 0.00 | 0.00 | 0.00 | 67 | 1017.4 |
| 20260904044005 | 54 | 2 | 11.0 | 28.0 | 0.00 | 0.00 | 0.00 | 66 | 1017.3 |
| 20260904043504 | 55 | 8 | 11.0 | 28.0 | 0.00 | 0.00 | 0.00 | 66 | 1017.1 |
| 20260904043003 | 55 | 10 | 13.0 | 21.0 | 0.00 | 0.00 | 0.00 | 66 | 1017.1 |
| 20260904042503 | 55 | 341 | 14.0 | 23.0 | 0.00 | 0.00 | 0.00 | 65 | 1017.1 |
| 20260904042004 | 56 | 333 | 14.0 | 23.0 | 0.00 | 0.00 | 0.00 | 65 | 1017.1 |
| 20260904041506 | 56 | 343 | 16.0 | 23.0 | 0.00 | 0.00 | 0.00 | 65 | 1017.1 |
| 20260904041006 | 55 | 348 | 15.0 | 23.0 | 0.00 | 0.00 | 0.00 | 64 | 1017.1 |
| 20260904040502 | 55 | 325 | 13.0 | 23.0 | 0.00 | 0.00 | 0.00 | 66 | 1016.8 |
| 20260904040009 | 55 | 9 | 14.0 | 23.0 | 0.00 | 0.00 | 0.00 | 66 | 1017.0 |
| 20260904035504 | 55 | 354 | 12.0 | 21.0 | 0.00 | 0.00 | 0.00 | 66 | 1017.4 |
| 20260904035004 | 55 | 351 | 11.0 | 22.0 | 0.00 | 0.00 | 0.00 | 68 | 1017.3 |
| 20260904034513 | 55 | 345 | 15.0 | 22.0 | 0.00 | 0.00 | 0.00 | 67 | 1017.2 |
| 20260904034004 | 55 | 349 | 13.0 | 20.0 | 0.00 | 0.00 | 0.00 | 67 | 1017.3 |
| 20260904033513 | 56 | 353 | 8.0 | 18.0 | 0.00 | 0.00 | 0.00 | 68 | 1017.3 |
| 20260904033010 | 56 | 85 | 8.0 | 18.0 | 0.00 | 0.00 | 0.00 | 69 | 1017.4 |
| 20260904032505 | 56 | 9 | 10.0 | 26.0 | 0.00 | 0.00 | 0.00 | 70 | 1017.6 |
| 20260904032004 | 54 | 6 | 9.0 | 26.0 | 0.00 | 0.00 | 0.00 | 68 | 1017.9 |
| 20260904031506 | 55 | 2 | 13.0 | 23.0 | 0.00 | 0.00 | 0.00 | 67 | 1018.0 |
| 20260904031003 | 55 | 339 | 14.0 | 23.0 | 0.00 | 0.00 | 0.00 | 69 | 1018.0 |
| 20260904030504 | 55 | 344 | 15.0 | 25.0 | 0.00 | 0.00 | 0.00 | 67 | 1018.0 |
| 20260904030007 | 55 | 337 | 15.0 | 25.0 | 0.00 | 0.00 | 0.00 | 68 | 1018.1 |
| 20260904025508 | 55 | 350 | 15.0 | 24.0 | 0.00 | 0.00 | 0.00 | 69 | 1018.1 |
| 20260904025009 | 53 | 4 | 15.0 | 25.0 | 0.00 | 0.00 | 0.00 | 69 | 1018.3 |
| 20260904024504 | 53 | 8 | 10.0 | 25.0 | 0.00 | 0.00 | 0.00 | 69 | 1018.3 |
| 20260904024009 | 55 | 30 | 10.0 | 22.0 | 0.00 | 0.00 | 0.00 | 69 | 1018.3 |
| 20260904023505 | 54 | 51 | 10.0 | 22.0 | 0.00 | 0.00 | 0.00 | 71 | 1018.3 |
| 20260904023017 | 53 | 16 | 10.0 | 23.0 | 0.00 | 0.00 | 0.00 | 69 | 1018.5 |
| 20260904022508 | 53 | 346 | 13.0 | 23.0 | 0.00 | 0.00 | 0.00 | 67 | 1018.5 |
| 20260904022005 | 53 | 9 | 14.0 | 23.0 | 0.00 | 0.00 | 0.00 | 68 | 1018.5 |
| 20260904021528 | 53 | 340 | 13.0 | 21.0 | 0.00 | 0.00 | 0.00 | 69 | 1018.6 |
| 20260904021004 | 53 | 349 | 12.0 | 24.0 | 0.00 | 0.00 | 0.00 | 69 | 1018.7 |
| 20260904020504 | 52 | 18 | 13.0 | 25.0 | 0.00 | 0.00 | 0.00 | 69 | 1018.8 |
| 20260904020008 | 52 | 4 | 16.0 | 25.0 | 0.00 | 0.00 | 0.00 | 69 | 1018.9 |
| 20260904015503 | 52 | 13 | 11.0 | 21.0 | 0.00 | 0.00 | 0.00 | 68 | 1018.9 |
| 20260904015004 | 52 | 349 | 9.0 | 20.0 | 0.00 | 0.00 | 0.00 | 70 | 1018.9 |
| 20260904014510 | 52 | 7 | 11.0 | 18.0 | 0.00 | 0.00 | 0.00 | 68 | 1018.8 |
| 20260904014008 | 52 | 352 | 8.0 | 18.0 | 0.00 | 0.00 | 0.00 | 70 | 1019.1 |
| 20260904013507 | 52 | 28 | 11.0 | 18.0 | 0.00 | 0.00 | 0.00 | 68 | 1019.1 |
| 20260904013014 | 51 | 318 | 11.0 | 18.0 | 0.00 | 0.00 | 0.00 | 70 | 1019.1 |
| 20260904012504 | 51 | 8 | 10.0 | 18.0 | 0.00 | 0.00 | 0.00 | 71 | 1019.3 |
| 20260904012010 | 51 | 344 | 10.0 | 17.0 | 0.00 | 0.00 | 0.00 | 71 | 1019.3 |
| 20260904011509 | 51 | 345 | 9.0 | 20.0 | 0.00 | 0.00 | 0.00 | 72 | 1019.2 |
| 20260904011015 | 50 | 330 | 6.0 | 20.0 | 0.00 | 0.00 | 0.00 | 73 | 1019.3 |
| 20260904010512 | 50 | 28 | 9.0 | 16.0 | 0.00 | 0.00 | 0.00 | 72 | 1019.5 |
| 20260904010009 | 51 | 4 | 10.0 | 16.0 | 0.00 | 0.00 | 0.00 | 74 | 1019.6 |
| 20260904005515 | 50 | 1 | 7.0 | 12.0 | 0.00 | 0.00 | 0.00 | 75 | 1019.6 |
| 20260904005005 | 49 | 343 | 5.0 | 12.0 | 0.00 | 0.00 | 0.00 | 77 | 1019.6 |
| 20260904004506 | 49 | 33 | 4.0 | 11.0 | 0.00 | 0.00 | 0.00 | 77 | 1019.7 |
| 20260904004007 | 48 | 18 | 3.0 | 15.0 | 0.00 | 0.00 | 0.00 | 77 | 1020.0 |
| 20260904003507 | 49 | 82 | 6.0 | 15.0 | 0.00 | 0.00 | 0.00 | 77 | 1020.2 |
| 20260904003012 | 49 | 27 | 8.0 | 18.0 | 0.00 | 0.00 | 0.00 | 77 | 1020.4 |
| 20260904002510 | 49 | 12 | 10.0 | 18.0 | 0.00 | 0.00 | 0.00 | 77 | 1020.5 |
| 20260904002004 | 49 | 24 | 5.0 | 18.0 | 0.00 | 0.00 | 0.00 | 77 | 1020.4 |
| 20260904001518 | 49 | 24 | 9.0 | 18.0 | 0.00 | 0.00 | 0.00 | 76 | 1020.4 |
| 20260904001009 | 49 | 16 | 10.0 | 16.0 | 0.00 | 0.00 | 0.00 | 77 | 1020.3 |
| 20260904000512 | 48 | 340 | 10.0 | 16.0 | 0.00 | 0.00 | 0.00 | 76 | 1020.3 |
| 20260904000024 | 49 | 29 | 10.0 | 16.0 | 0.00 | 0.00 | 0.00 | 76 | 1020.4 |
| 20260903235511 | 49 | 20 | 6.0 | 12.0 | 0.00 | 0.00 | 0.00 | 78 | 1020.5 |
| 20260903235017 | 48 | 12 | 6.0 | 14.0 | 0.00 | 0.00 | 0.00 | 78 | 1020.5 |
| 20260903234519 | 49 | 12 | 9.0 | 14.0 | 0.00 | 0.00 | 0.00 | 79 | 1020.6 |
| 20260903234007 | 49 | 54 | 5.0 | 11.0 | 0.00 | 0.00 | 0.00 | 79 | 1020.5 |
| 20260903233506 | 48 | 347 | 5.0 | 11.0 | 0.00 | 0.00 | 0.00 | 80 | 1020.4 |
| 20260903233010 | 47 | 16 | 6.0 | 13.0 | 0.00 | 0.00 | 0.00 | 81 | 1020.4 |
| 20260903232508 | 47 | 355 | 10.0 | 14.0 | 0.00 | 0.00 | 0.00 | 80 | 1020.6 |
| 20260903232008 | 47 | 358 | 9.0 | 14.0 | 0.00 | 0.00 | 0.00 | 80 | 1020.8 |
| 20260903231513 | 47 | 330 | 8.0 | 13.0 | 0.00 | 0.00 | 0.00 | 79 | 1020.9 |
| 20260903231012 | 48 | 339 | 8.0 | 11.0 | 0.00 | 0.00 | 0.00 | 80 | 1020.9 |
| 20260903230509 | 47 | 325 | 7.0 | 12.0 | 0.00 | 0.00 | 0.00 | 79 | 1020.6 |
| 20260903230034 | 47 | 345 | 8.0 | 15.0 | 0.00 | 0.00 | 0.00 | 80 | 1020.7 |
| 20260903225514 | 46 | 337 | 9.0 | 15.0 | 0.00 | 0.00 | 0.00 | 79 | 1020.7 |
| 20260903225009 | 46 | 353 | 9.0 | 15.0 | 0.00 | 0.00 | 0.00 | 79 | 1020.9 |
| 20260903224533 | 46 | 342 | 9.0 | 16.0 | 0.00 | 0.00 | 0.00 | 78 | 1021.0 |
| 20260903224014 | 46 | 314 | 9.0 | 16.0 | 0.00 | 0.00 | 0.00 | 78 | 1021.2 |
| 20260903223506 | 46 | 350 | 9.0 | 15.0 | 0.00 | 0.00 | 0.00 | 78 | 1021.0 |
| 20260903223029 | 46 | 358 | 9.0 | 13.0 | 0.00 | 0.00 | 0.00 | 79 | 1021.0 |
| 20260903222512 | 46 | 317 | 6.0 | 10.0 | 0.00 | 0.00 | 0.00 | 80 | 1020.8 |
| 20260903222021 | 46 | 334 | 5.0 | 9.0 | 0.00 | 0.00 | 0.00 | 80 | 1020.6 |
| 20260903221512 | 45 | 345 | 4.0 | 6.0 | 0.00 | 0.00 | 0.00 | 81 | 1020.5 |
| 20260903221009 | 45 | 348 | 2.0 | 5.0 | 0.00 | 0.00 | 0.00 | 81 | 1020.4 |
| 20260903220508 | 44 | 358 | 2.0 | 6.0 | 0.00 | 0.00 | 0.00 | 81 | 1020.3 |
| 20260903220024 | 43 | 355 | 1.0 | 7.0 | 0.00 | 0.00 | 0.00 | 81 | 1020.3 |
| 20260903215509 | 43 | 2 | 4.0 | 7.0 | 0.00 | 0.00 | 0.00 | 81 | 1020.3 |
| 20260903215014 | 42 | 3 | 3.0 | 6.0 | 0.00 | 0.00 | 0.00 | 82 | 1020.3 |
| 20260903214529 | 41 | 341 | 0.0 | 4.0 | 0.00 | 0.00 | 0.00 | 81 | 1020.2 |
| 20260903214017 | 41 | 341 | 2.0 | 4.0 | 0.00 | 0.00 | 0.00 | 81 | 1020.2 |
| 20260903213514 | 40 | 331 | 1.0 | 3.0 | 0.00 | 0.00 | 0.00 | 81 | 1020.1 |
| 20260903213014 | 40 | 308 | 0.0 | 3.0 | 0.00 | 0.00 | 0.00 | 80 | 1020.0 |
| 20260903212517 | 40 | 308 | 1.0 | 4.0 | 0.00 | 0.00 | 0.00 | 79 | 1020.0 |
| 20260903212012 | 41 | 317 | 1.0 | 5.0 | 0.00 | 0.00 | 0.00 | 78 | 1019.9 |
| 20260903211534 | 42 | 343 | 2.0 | 5.0 | 0.00 | 0.00 | 0.00 | 78 | 1019.7 |
| 20260903211014 | 42 | 7 | 0.0 | 5.0 | 0.00 | 0.00 | 0.00 | 77 | 1019.6 |
| 20260903210510 | 42 | 351 | 2.0 | 5.0 | 0.00 | 0.00 | 0.00 | 77 | 1019.5 |
| 20260903210041 | 42 | 10 | 0.0 | 5.0 | 0.00 | 0.00 | 0.00 | 77 | 1019.4 |
| 20260903205508 | 43 | 360 | 1.0 | 5.0 | 0.00 | 0.00 | 0.00 | 77 | 1019.5 |
| 20260903205018 | 42 | 38 | 1.0 | 4.0 | 0.00 | 0.00 | 0.00 | 78 | 1019.4 |
| 20260903204520 | 42 | 47 | 2.0 | 4.0 | 0.00 | 0.00 | 0.00 | 79 | 1019.3 |
| 20260903204015 | 41 | 33 | 1.0 | 3.0 | 0.00 | 0.00 | 0.00 | 80 | 1019.3 |
| 20260903203515 | 41 | 35 | 0.0 | 2.0 | 0.00 | 0.00 | 0.00 | 80 | 1019.3 |
| 20260903203025 | 40 | 35 | 0.0 | 2.0 | 0.00 | 0.00 | 0.00 | 80 | 1019.2 |
| 20260903202514 | 40 | 9 | 0.0 | 2.0 | 0.00 | 0.00 | 0.00 | 78 | 1019.3 |
| 20260903202004 | 40 | 9 | 0.0 | 2.0 | 0.00 | 0.00 | 0.00 | 79 | 1019.4 |
| 20260903201507 | 40 | 9 | 0.0 | 3.0 | 0.00 | 0.00 | 0.00 | 79 | 1019.1 |
| 20260903201007 | 40 | 9 | 1.0 | 3.0 | 0.00 | 0.00 | 0.00 | 78 | 1019.4 |
| 20260903200507 | 40 | 27 | 0.0 | 0.0 | 0.00 | 0.00 | 0.00 | 78 | 1019.4 |
| 20260903200008 | 40 | 27 | 0.0 | 0.0 | 0.00 | 0.00 | 0.00 | 78 | 1019.3 |
| 20260903195508 | 40 | 27 | 0.0 | 0.0 | 0.00 | 0.00 | 0.00 | 77 | 1019.3 |
| 20260903195007 | 40 | 27 | 0.0 | 0.0 | 0.00 | 0.00 | 0.00 | 76 | 1019.3 |
| 20260903194514 | 41 | 27 | 0.0 | 0.0 | 0.00 | 0.00 | 0.00 | 75 | 1019.3 |
| 20260903194008 | 41 | 27 | 0.0 | 0.0 | 0.00 | 0.00 | 0.00 | 75 | 1019.2 |
| 20260903193503 | 41 | 27 | 0.0 | 0.0 | 0.00 | 0.00 | 0.00 | 74 | 1019.3 |
| 20260903193019 | 42 | 27 | 0.0 | 2.0 | 0.00 | 0.00 | 0.00 | 73 | 1019.3 |
| 20260903192504 | 43 | 27 | 0.0 | 2.0 | 0.00 | 0.00 | 0.00 | 73 | 1019.2 |
| 20260903192016 | 43 | 27 | 0.0 | 1.0 | 0.00 | 0.00 | 0.00 | 72 | 1019.2 |
| 20260903191504 | 43 | 27 | 0.0 | 1.0 | 0.00 | 0.00 | 0.00 | 72 | 1019.2 |
| 20260903191006 | 43 | 27 | 0.0 | 1.0 | 0.00 | 0.00 | 0.00 | 71 | 1019.1 |
| 20260903190507 | 44 | 27 | 0.0 | 3.0 | 0.00 | 0.00 | 0.00 | 72 | 1019.2 |
| 20260903190007 | 44 | 27 | 1.0 | 3.0 | 0.00 | 0.00 | 0.00 | 71 | 1019.2 |
| 20260903185503 | 44 | 13 | 0.0 | 3.0 | 0.00 | 0.00 | 0.00 | 71 | 1019.1 |
| 20260903185008 | 44 | 13 | 0.0 | 4.0 | 0.00 | 0.00 | 0.00 | 71 | 1019.1 |
| 20260903184508 | 44 | 18 | 1.0 | 4.0 | 0.00 | 0.00 | 0.00 | 71 | 1019.1 |
| 20260903184009 | 44 | 19 | 1.0 | 5.0 | 0.00 | 0.00 | 0.00 | 71 | 1019.2 |
| 20260903183511 | 44 | 15 | 2.0 | 5.0 | 0.00 | 0.00 | 0.00 | 72 | 1019.1 |
| 20260903183006 | 44 | 355 | 2.0 | 4.0 | 0.00 | 0.00 | 0.00 | 73 | 1019.1 |
| 20260903182513 | 44 | 18 | 0.0 | 4.0 | 0.00 | 0.00 | 0.00 | 73 | 1019.1 |
| 20260903182006 | 43 | 4 | 1.0 | 4.0 | 0.00 | 0.00 | 0.00 | 74 | 1019.1 |
| 20260903181505 | 43 | 33 | 1.0 | 4.0 | 0.00 | 0.00 | 0.00 | 74 | 1019.1 |
| 20260903181013 | 43 | 21 | 1.0 | 4.0 | 0.00 | 0.00 | 0.00 | 74 | 1019.1 |
| 20260903180508 | 43 | 19 | 0.0 | 4.0 | 0.00 | 0.00 | 0.00 | 72 | 1019.1 |
| 20260903180034 | 44 | 13 | 1.0 | 6.0 | 0.00 | 0.00 | 0.00 | 73 | 1019.0 |
| 20260903175510 | 44 | 12 | 2.0 | 6.0 | 0.00 | 0.00 | 0.00 | 72 | 1018.9 |
| 20260903175005 | 45 | 15 | 1.0 | 6.0 | 0.00 | 0.00 | 0.00 | 72 | 1018.9 |
| 20260903174508 | 45 | 10 | 2.0 | 4.0 | 0.00 | 0.00 | 0.00 | 72 | 1019.0 |
| 20260903174008 | 45 | 10 | 0.0 | 4.0 | 0.00 | 0.00 | 0.00 | 72 | 1019.0 |
| 20260903173509 | 45 | 18 | 1.0 | 4.0 | 0.00 | 0.00 | 0.00 | 72 | 1019.1 |
| 20260903173013 | 45 | 9 | 2.0 | 4.0 | 0.00 | 0.00 | 0.00 | 72 | 1019.0 |
| 20260903172504 | 45 | 20 | 2.0 | 4.0 | 0.00 | 0.00 | 0.00 | 72 | 1019.1 |
| 20260903172012 | 45 | 35 | 2.0 | 4.0 | 0.00 | 0.00 | 0.00 | 72 | 1019.1 |
| 20260903171514 | 45 | 18 | 2.0 | 4.0 | 0.00 | 0.00 | 0.00 | 72 | 1019.1 |
| 20260903171004 | 45 | 15 | 2.0 | 4.0 | 0.00 | 0.00 | 0.00 | 72 | 1019.1 |
| 20260903170514 | 45 | 20 | 2.0 | 4.0 | 0.00 | 0.00 | 0.00 | 71 | 1019.2 |
| 20260903170014 | 45 | 15 | 2.0 | 4.0 | 0.00 | 0.00 | 0.00 | 71 | 1019.2 |
| 20260903165517 | 45 | 28 | 2.0 | 4.0 | 0.00 | 0.00 | 0.00 | 72 | 1019.3 |
| 20260903165015 | 45 | 23 | 2.0 | 4.0 | 0.00 | 0.00 | 0.00 | 72 | 1019.4 |
| 20260903164511 | 45 | 26 | 2.0 | 5.0 | 0.00 | 0.00 | 0.00 | 72 | 1019.5 |
| 20260903164015 | 45 | 39 | 2.0 | 5.0 | 0.00 | 0.00 | 0.00 | 73 | 1019.5 |
| 20260903163506 | 45 | 25 | 2.0 | 4.0 | 0.00 | 0.00 | 0.00 | 73 | 1019.5 |
| 20260903163009 | 45 | 35 | 2.0 | 4.0 | 0.00 | 0.00 | 0.00 | 73 | 1019.6 |
| 20260903162507 | 45 | 25 | 2.0 | 5.0 | 0.00 | 0.00 | 0.00 | 73 | 1019.7 |
| 20260903162013 | 45 | 12 | 2.0 | 5.0 | 0.00 | 0.00 | 0.00 | 73 | 1019.8 |
| 20260903161518 | 45 | 18 | 2.0 | 5.0 | 0.00 | 0.00 | 0.00 | 73 | 1019.8 |
| 20260903161009 | 45 | 17 | 2.0 | 5.0 | 0.00 | 0.00 | 0.00 | 73 | 1019.8 |
| 20260903160512 | 46 | 5 | 2.0 | 4.0 | 0.00 | 0.00 | 0.00 | 73 | 1019.8 |
| 20260903160019 | 46 | 6 | 2.0 | 4.0 | 0.00 | 0.00 | 0.00 | 73 | 1019.9 |
| 20260903155514 | 46 | 12 | 2.0 | 5.0 | 0.00 | 0.00 | 0.00 | 74 | 1020.0 |
| 20260903155015 | 46 | 6 | 2.0 | 5.0 | 0.00 | 0.00 | 0.00 | 74 | 1020.0 |
| 20260903154511 | 46 | 17 | 2.0 | 4.0 | 0.00 | 0.00 | 0.00 | 76 | 1020.0 |
| 20260903154017 | 46 | 16 | 2.0 | 4.0 | 0.00 | 0.00 | 0.00 | 77 | 1020.1 |
| 20260903153517 | 45 | 7 | 2.0 | 6.0 | 0.00 | 0.00 | 0.00 | 79 | 1020.1 |
| 20260903153012 | 44 | 354 | 1.0 | 6.0 | 0.00 | 0.00 | 0.00 | 81 | 1020.1 |
| 20260903152517 | 43 | 360 | 1.0 | 3.0 | 0.00 | 0.00 | 0.00 | 82 | 1020.2 |
| 20260903152012 | 43 | 10 | 0.0 | 3.0 | 0.00 | 0.00 | 0.00 | 82 | 1020.3 |
| 20260903151513 | 43 | 10 | 0.0 | 3.0 | 0.00 | 0.00 | 0.00 | 82 | 1020.2 |
| 20260903151011 | 43 | 10 | 0.0 | 0.0 | 0.00 | 0.00 | 0.00 | 82 | 1020.2 |
| 20260903150511 | 43 | 10 | 0.0 | 0.0 | 0.00 | 0.00 | 0.00 | 82 | 1020.2 |
| 20260903150019 | 43 | 10 | 0.0 | 0.0 | 0.00 | 0.00 | 0.00 | 81 | 1020.3 |